Regional Weather Roundup
Issued by NWS Northern Indiana

Home | Current Version | Previous Version | Graphics & Text | Print | Product List | Glossary On
Versions: 1 2 3 4 5 6 7 8 9 10 11 12 13 14 15 16 17 18 19 20 21 22 23 24 25 26 27 28 29 30 31 32 33 34 35 36 37 38 39 40 41 42 43 44 45 46 47 48 49 50
000
ASUS43 KIWX 270300
RWRIWX

KIWX WEATHER ROUNDUP
NATIONAL WEATHER SERVICE NORTHERN INDIANA
1100 PM EDT TUE AUG 26 2014

NOTE: "FAIR" INDICATES FEW OR NO CLOUDS BELOW 12,000 FEET WITH NO
SIGNIFICANT WEATHER AND/OR OBSTRUCTIONS TO VISIBILITY.

* THESE STATIONS ARE NOT UNDER NWS QUALITY CONTROL. THEY ALSO MAY NOT
  REPORT WEATHER SUCH AS PRECIPITATION OR FOG.

INZ001>027-270400-
NORTHERN INDIANA

CITY           SKY/WX    TMP DP  RH WIND       PRES   REMARKS
GARY*          PTCLDY    72  70  94 E6        30.11R
VALPARAISO     MOCLDY    69  68  96 N5        30.11R FOG
KNOX*            N/A     69  67  93 CALM      30.09R VSB 3/4
SOUTH BEND     MOCLDY    71  68  90 N8        30.11R FOG
GOSHEN         FOG       69  67  93 CALM      30.09R VSB 1/2
MONTICELLO*    CLOUDY    71  69  93 CALM      30.08F
WARSAW*        FOG       66  64  94 CALM      30.09S VSB 1
ANGOLA*        CLOUDY    70  61  73 CALM      30.10R VSB 1/4
FORT WAYNE     MOCLDY    70  68  93 W5        30.10R

$$
INZ028>050-270400-
CENTRAL INDIANA

CITY           SKY/WX    TMP DP  RH WIND       PRES   REMARKS
LAFAYETTE      CLOUDY    70  69  97 SE3       30.08F
KOKOMO*        PTCLDY    68  66  94 CALM      30.11R
MUNCIE*        MOCLDY    72  68  87 NW5       30.11R
INDIANAPOLIS   MOCLDY    74  69  85 CALM      30.08S

$$
MIZ043>046-050>051-056>058-064>065-071>073-077>080-270400-
SOUTHWEST LOWER MICHIGAN

CITY           SKY/WX    TMP DP  RH WIND       PRES   REMARKS
BATTLE CREEK   CLOUDY    71  66  84 N6        30.11R
BENTON HARBOR  CLEAR     64  63  96 CALM      30.10R
COLDWATER*     CLOUDY    72  71  96 CALM      30.10R FOG
HILLSDALE*     PTCLDY    71  71 100 CALM      30.10S FOG
HOLLAND        CLEAR     63  61  93 CALM      30.11R
GRAND RAPIDS   CLEAR     67  62  84 NW7       30.09S
KALAMAZOO      MOCLDY    70  66  87 N8        30.11R
STURGIS*       CLOUDY    72  72 100 CALM      30.09R FOG
THREE RIVERS*  CLOUDY    73  70  91 NW5       30.11R

$$
OHZ001>008-015>018-024>025-270400-
NORTHWEST OHIO

CITY           SKY/WX    TMP DP  RH WIND       PRES   REMARKS
DEFIANCE       CLEAR     73  70  90 CALM      30.09R
FINDLAY        CLEAR     72  69  90 CALM      30.07S
TOLEDO EXPRESS CLEAR     75  70  84 W5        30.06S
TOLEDO METCALF CLEAR     74  68  81 S5        30.07S
LIMA           PTCLDY    73  69  87 SW5       30.10R

$$
&&



USA.gov is the U.S. government's official web portal to all federal, state and local government web resources and services.